Showing default

SES 2, 37809

Orbit data source: Space-Track

SES 2, 37809 is a payload satellite owned by SES Sat. Leasing (LU) in GEO that was launched on Wed, 21 Sep 2011 UTC via an ARIANE 5ECA launch vehicle from the French Guiana (FRGUI). Payload-class satellites include a variety of spacecraft equipped with specific instruments for various scientific and technological missions. These include communications satellites like Starlink; space stations such as the ISS; scientific satellites like the Hubble; Earth observation satellites from companies like Planet Labs, Umbra, and HawkEye 360; GPS; miniature CubeSats for education and research; and military/defense satellites.

Loading next visibility...
Identifier
37809, 2011-049A
Orbit
GEO
Country
Flag of LULU / SES
Related business
Manufacturer
OSC
Mission
Operational Commercial Communications
Bus & Motor
STAR-2.4, BT-4
Mass
3,200 kg wet, ~1,500 kg dry
Launch date (UTC)
2011-09-21 (14 years ago)
Launch vehicle
ARIANE 5ECA
Launch site
French Guiana (FRGUI)
Object type
Payload
Rocket body
Debris
Shape & HBR
Box + 2 Pan, 11.8 m
Radar Cross Section
27.062 m², Large (>1 m²)

Expand to show TLE details & history
Last TLE update: 14 hours ago

TLE from 14 hours ago
0 SES 2
1 37809U 11049A   25260.99379986  .00000000  00000-0  00000-0 0  9997
2 37809   0.0166 137.2832 0002439  50.9985  79.6548  1.00270328 51235
Epoch: 2025-09-17T23:51Z
TLE epoch observation values (Epoch: 2025-09-17T23:51:04.307Z)
Latitude
0.03276°
Longitude
-86.96377°
Altitude
35,784.67 km
Speed
3.075 km/s
True Right ascension
17h 51m 51s
True Declination
0° 01' 58"
Sunlit
Object was in daylight at epoch
Visualization orbit readout
Latitude
Unknown
Longitude
Unknown
Altitude
Unknown
Speed
Unknown
Apparent Right ascension
Unknown
Apparent Declination
Unknown
Sunlit
N/A
Visualization observer readout
Local Sidereal Time
06:15:52
Azimuth
Unknown
Elevation
Unknown
Doppler factor
Unknown
Orbital elements
Apogee altitude
35,798.358 km
Perigee altitude
35,777.789 km
Semi-major axis
42,166.211 km
Eccentricity
0.00024
Inclination
0.0166°
RAAN
137.2832°
Arg. of periapsis
50.9985°
True anomaly
79.6823°
Mean anomaly
79.6548°
Eccentric anomaly
79.66855°
Mean motion
0.25067 °/min
Orbital period
1,436.17 mins
BSTAR
0
Loading maneuver chart data...
Computing Atmospheric mass density...
Loading historical data...
Loading historical data...
Loading historical data...
Loading historical data...
Loading historical data...
Loading historical data...
Loading historical data...
Other satellites on launch #49 in the year 2011 (2011-09-21 UTC)

Documentation

Showing up to 5 results
|